This is the latest recevied weather packets stored in our database for station/object N8HON. If no packets are shown the sender has not sent any weather packets the latest 10 day(s).
| Time | Temp. | Humidity | Pressure | Rain* | Wind** | Luminosity | Snow |
|---|---|---|---|---|---|---|---|
| 1778213604 | 8.33° C | 54% | 1012.3 hPa | 0 mm | - | 0 W/m² | - |
| 1778213301 | 8.33° C | 56% | 1012.2 hPa | 0 mm | - | 0 W/m² | - |
| 1778212998 | 8.33° C | 55% | 1012.2 hPa | 0 mm | - | 0 W/m² | - |
| 1778212695 | 8.89° C | 53% | 1012.1 hPa | 0 mm | - | 0 W/m² | - |
| 1778212392 | 8.89° C | 55% | 1012.3 hPa | 0 mm | - | 0 W/m² | - |
| 1778212089 | 9.44° C | 54% | 1012.2 hPa | 0 mm | - | 0 W/m² | - |
| 1778211786 | 9.44° C | 53% | 1011.8 hPa | 0 mm | - | 0 W/m² | - |
| 1778211483 | 8.89° C | 51% | 1012 hPa | 0 mm | - | 0 W/m² | - |
| 1778211181 | 8.89° C | 56% | 1011.8 hPa | 0 mm | - | 0 W/m² | - |
| 1778210879 | 8.89° C | 53% | 1011.8 hPa | 0 mm | - | 0 W/m² | - |
| 1778210575 | 8.89° C | 55% | 1011.8 hPa | 0 mm | - | 0 W/m² | - |
| 1778210272 | 8.89° C | 55% | 1011.8 hPa | 0 mm | - | 0 W/m² | - |
| 1778209969 | 8.89° C | 55% | 1011.7 hPa | 0 mm | - | 0 W/m² | - |
| 1778209665 | 8.89° C | 55% | 1011.7 hPa | 0 mm | - | 0 W/m² | - |
| 1778209363 | 8.89° C | 56% | 1011.5 hPa | 0 mm | - | 0 W/m² | - |
| 1778209059 | 10° C | 52% | 1011.3 hPa | 0 mm | - | 0 W/m² | - |
| 1778208756 | 8.89° C | 55% | 1011.4 hPa | 0 mm | - | 0 W/m² | - |
| 1778208452 | 9.44° C | 56% | 1011.4 hPa | 0 mm | - | 0 W/m² | - |
| 1778208149 | 9.44° C | 54% | 1011.3 hPa | 0 mm | - | 0 W/m² | - |
| 1778207846 | 9.44° C | 55% | 1011.4 hPa | 0 mm | - | 0 W/m² | - |
| 1778207544 | 9.44° C | 56% | 1011.3 hPa | 0 mm | - | 0 W/m² | - |
| 1778207239 | 10° C | 58% | 1011.2 hPa | 0 mm | - | 0 W/m² | - |
| 1778206936 | 10° C | 57% | 1011.5 hPa | 0 mm | - | 0 W/m² | - |
| 1778206633 | 10° C | 55% | 1011.2 hPa | 0 mm | - | 0 W/m² | - |
| 1778206328 | 10° C | 57% | 1011.2 hPa | 0 mm | - | 0 W/m² | - |
* Rain latest hour (hover to see other rain measurements)
** Current wind speed in m/s (hover to see current wind gust speed)